Dewpoint
74 73 73 74 76 75 71 68 57 61 60 55 56 58 57 63 63 63 61 63 61 63 65 66 64 63 61 61 60 63 62 58 59 54 51 64 72 72 73 73 73 73 73 74 75 76 75 76 76 75 75 74 74 74 77 77 76 75 76 76 76 75 75 75 76 76 75 75 75 76 75 75 75 75 75 75 75 75 75 75 75 75 76 76 75 75 76 76 76 76 76 76 76 76 75 76 75
72 71 74 75 74 71 66 67 59 58 58 55 56 60 60 62 62 61 59 61 60 61 64 64 66 62 63 63 62 61 59 63 66 65 68 71 72 72 73 73 73 73 73 74 75 75 75 75 76 75 75 75 75 75 74 75 74 74 74 75 75 76 76 76 76 75 75 75 75 75 75 74 74 74 74 74 74 75 75 74 74 74 75 75 75 76 76 76 76 76 76 76 76 76 76 76 76
71 75 75 76 73 70 68 66 55 55 53 50 55 58 63 61 60 61 62 62 64 62 62 62 65 65 62 62 60 59 56 65 67 68 69 71 70 72 72 72 73 73 73 74 74 74 74 75 76 76 75 75 75 74 74 75 75 74 74 75 75 76 76 76 75 75 75 74 74 74 74 73 73 73 73 73 73 73 72 73 73 73 73 75 75 76 76 76 76 75 74 75 76 77 76 76 76
74 76 73 73 67 70 62 61 57 55 52 53 54 60 61 61 59 62 64 65 64 63 61 61 61 62 60 58 59 60 61 63 67 69 69 70 70 71 72 72 73 73 73 73 74 74 74 75 76 76 76 75 75 75 75 75 75 74 74 74 75 76 76 75 74 74 74 73 73 73 73 73 74 74 73 73 74 73 73 73 73 73 73 73 73 73 73 73 73 74 74 74 74 76 77 77 77
75 76 75 72 66 61 61 58 57 57 53 56 53 61 61 61 62 63 64 65 63 63 60 60 55 57 59 62 61 58 59 64 67 68 69 70 71 71 71 72 72 73 73 73 74 74 74 76 76 76 76 75 75 75 75 75 75 75 75 74 74 74 74 74 74 74 74 74 74 74 74 74 74 74 74 74 74 73 73 73 73 73 73 73 73 73 73 73 74 74 74 74 75 75 76 77 77
74 73 74 72 64 67 62 56 57 57 60 61 59 60 62 64 62 63 64 64 63 63 59 56 53 53 55 57 61 60 63 62 65 68 70 70 71 71 71 72 72 72 73 73 73 73 74 76 76 76 76 76 76 76 75 75 75 75 75 74 74 74 74 74 74 74 74 74 74 75 75 75 75 75 74 73 74 74 74 74 74 73 73 73 73 73 73 73 73 74 75 75 75 76 76 76 77
72 72 71 69 67 67 57 56 57 58 61 62 60 61 63 65 65 64 64 63 62 62 53 50 52 53 55 58 59 61 60 64 66 68 70 70 70 71 71 71 71 72 72 73 73 74 75 76 76 76 76 76 76 75 75 75 75 75 75 74 74 75 75 74 74 74 75 75 75 76 76 76 75 74 73 74 75 75 75 74 74 74 74 74 73 73 74 74 75 75 75 75 76 76 76 77 77
75 67 68 62 60 61 57 57 58 60 60 63 63 62 63 64 65 63 63 61 58 56 54 55 57 56 55 58 57 59 62 64 68 70 70 70 71 71 70 70 71 71 72 73 74 75 77 76 77 77 77 76 76 75 75 75 75 75 75 75 75 75 75 74 75 75 75 75 76 76 76 75 74 74 74 74 75 75 74 74 73 74 74 74 74 74 74 75 76 76 77 77 77 78 77 77 77
73 70 70 60 56 58 57 57 58 61 61 63 63 65 66 65 65 64 63 63 59 49 49 52 54 52 53 56 57 59 64 67 69 71 70 70 70 69 69 70 71 71 72 73 74 75 75 76 77 77 76 76 75 75 75 75 76 75 75 75 75 75 75 74 75 75 75 76 76 76 75 74 74 74 75 74 74 74 74 74 74 74 75 74 74 75 75 76 76 77 77 78 78 78 78 78 78
70 69 61 58 58 55 56 57 57 60 61 63 63 64 64 66 64 64 64 62 63 51 49 50 53 53 55 54 56 61 64 69 69 69 69 69 68 68 69 70 71 71 72 73 74 75 75 76 77 76 76 75 75 75 75 75 75 76 75 74 75 75 74 74 75 75 75 75 75 75 75 74 74 75 74 74 74 74 74 74 75 75 74 74 75 75 75 76 77 78 78 78 78 78 78 78 78
63 67 66 57 55 55 55 56 58 60 61 63 64 66 66 67 63 63 63 65 65 52 51 50 49 51 51 54 58 62 67 68 68 67 68 67 67 68 70 70 71 72 72 73 74 75 75 74 76 76 76 75 75 75 75 75 75 75 75 75 75 75 74 75 75 74 74 75 74 74 75 74 75 75 75 75 75 74 75 75 75 75 75 75 76 76 76 77 77 78 78 78 77 78 78 78 78
61 61 61 56 55 55 57 57 58 60 61 63 62 65 68 65 64 63 64 62 63 58 58 60 53 53 55 56 59 63 66 66 67 67 66 66 70 70 70 71 71 72 73 74 74 74 74 75 74 75 75 75 74 75 75 75 75 75 75 75 75 74 74 75 75 74 74 74 74 75 75 75 74 74 75 75 75 75 76 76 75 76 76 76 76 77 77 77 78 78 78 78 78 78 78 78 79
62 64 59 56 56 59 59 57 58 58 59 61 62 65 68 64 64 63 63 64 63 57 56 55 52 55 55 57 60 62 64 65 65 64 65 70 71 71 71 71 72 73 73 74 74 74 74 74 74 74 74 75 74 75 75 75 74 75 75 74 74 74 74 75 74 75 74 74 74 75 75 75 75 75 75 75 76 76 76 76 76 76 76 77 77 77 77 78 78 78 78 78 78 78 78 79 79
64 64 62 54 61 61 59 58 58 56 58 63 65 66 67 65 65 63 64 62 63 63 63 58 57 55 55 57 59 61 62 63 62 62 68 71 71 71 72 72 72 73 74 74 74 74 74 74 74 73 73 73 73 75 75 75 75 74 74 74 75 74 74 75 74 74 75 75 75 75 75 75 75 75 75 76 76 76 76 76 77 77 77 77 78 78 78 78 79 78 78 78 78 79 79 79 79
64 67 62 60 59 60 60 57 58 59 59 64 64 66 66 66 67 65 66 63 62 66 64 61 56 56 53 56 56 59 60 61 61 63 70 71 71 72 72 72 72 73 73 74 74 73 73 73 73 73 74 73 73 74 73 73 74 75 74 75 75 75 75 75 75 75 75 75 75 75 75 76 75 76 76 76 76 76 77 77 77 77 78 78 78 78 78 79 79 79 78 78 79 79 79 79 80
68 65 63 59 57 57 58 57 60 59 60 64 66 66 66 65 68 67 65 68 66 65 67 61 65 65 56 56 56 58 59 60 61 65 70 70 70 71 71 71 71 72 73 73 73 73 73 73 73 73 73 73 73 74 74 73 74 75 75 76 75 75 75 75 75 75 75 75 75 76 76 75 75 75 77 76 77 78 77 77 77 78 78 78 79 79 78 78 79 79 79 79 79 79 80 80 80
69 65 56 56 53 57 56 56 58 57 63 64 66 66 65 64 67 69 69 70 67 65 69 70 67 58 62 55 56 58 57 61 63 67 70 69 69 69 70 70 71 71 72 73 73 73 73 73 73 73 73 73 73 74 74 74 74 75 75 76 76 75 76 76 76 76 76 76 75 75 76 76 75 75 76 76 78 78 78 78 78 78 79 79 79 79 79 78 78 79 79 79 79 79 79 80 81
66 62 57 54 54 57 57 57 58 60 60 63 63 66 64 62 65 67 67 65 68 67 68 68 70 62 69 54 55 56 55 59 61 67 69 68 69 69 69 69 69 69 71 72 72 73 73 73 73 73 73 73 74 74 74 74 74 74 74 74 75 75 75 76 75 74 76 75 76 75 75 76 76 75 75 77 76 78 79 79 79 79 79 80 80 80 79 78 79 79 79 79 80 80 80 79 79
63 59 57 52 56 57 61 63 61 60 60 62 63 65 63 62 66 65 65 64 65 64 66 69 64 60 52 51 54 54 53 57 60 65 67 68 68 68 68 68 68 69 70 71 71 72 73 73 73 73 73 73 73 74 74 74 74 74 74 74 74 75 76 76 75 76 74 74 75 75 76 75 76 75 75 76 77 78 79 80 80 80 80 80 80 80 79 79 79 79 80 80 81 81 80 78 77
66 56 55 56 59 60 65 65 63 66 63 63 63 64 65 65 67 65 66 63 65 62 62 63 63 55 49 50 51 51 52 52 57 62 66 67 67 67 67 67 68 69 69 69 70 71 72 73 73 73 73 73 73 74 74 74 74 74 74 74 74 74 74 75 74 74 74 74 74 74 74 75 76 76 78 79 79 79 79 81 80 80 80 80 80 79 79 80 80 80 81 81 82 81 78 77 75
65 58 56 57 60 59 64 65 66 65 65 64 64 65 63 65 68 66 65 62 63 63 66 64 63 62 50 49 50 50 50 49 54 58 64 66 66 67 67 67 68 68 68 69 70 70 71 72 73 73 73 73 73 73 74 74 74 74 74 74 74 74 74 74 74 74 74 74 74 75 75 75 76 76 75 75 76 76 75 74 74 74 76 77 79 78 78 78 78 77 77 79 79 79 78 75 72
63 58 59 59 62 61 64 65 67 65 65 63 64 62 62 66 66 67 64 60 59 63 65 68 68 68 60 50 48 48 48 48 52 56 61 64 64 65 66 67 68 68 68 69 69 69 70 72 72 73 73 72 73 74 74 74 75 74 73 74 74 74 74 74 74 74 74 74 74 75 76 76 76 76 74 73 72 73 73 72 72 73 73 74 77 77 77 77 77 77 75 75 76 76 75 74 70
54 56 59 61 62 61 66 66 65 65 64 63 63 64 65 64 65 65 65 62 63 66 66 69 71 71 71 69 68 47 46 47 48 55 56 60 62 63 63 65 66 66 68 68 69 69 71 72 71 72 73 72 73 74 74 74 74 74 74 74 74 73 74 74 74 74 74 74 75 75 76 76 75 74 72 72 70 71 72 73 73 74 74 74 75 76 76 76 76 75 73 73 71 71 72 73 71
56 53 59 61 64 61 66 66 66 64 63 63 65 64 63 64 61 65 64 67 69 64 65 68 71 70 71 70 70 70 60 45 45 53 54 56 60 60 61 63 64 65 67 66 67 68 71 71 71 72 73 72 73 75 75 74 74 74 73 75 75 74 74 74 74 74 74 74 75 76 76 75 73 72 71 69 70 71 71 72 72 72 73 74 74 74 73 74 73 72 71 69 69 69 69 69 69
56 56 60 61 65 63 66 65 64 66 65 64 64 62 63 64 63 63 64 66 65 63 66 69 71 70 70 69 70 71 70 69 59 50 53 54 56 59 59 61 62 64 65 65 65 67 70 70 70 71 72 72 73 75 75 75 74 74 74 74 74 76 75 74 74 75 74 74 75 76 76 74 73 71 68 67 68 69 69 69 70 71 72 71 70 70 71 70 70 69 69 69 71 68 67 66 69
52 55 60 62 63 64 66 65 65 65 66 66 63 62 64 65 63 63 65 66 65 64 68 68 69 67 69 70 71 73 70 71 71 69 67 51 54 56 57 58 59 62 63 63 63 66 68 69 69 70 71 71 72 74 75 75 75 74 74 74 75 77 76 75 75 75 75 74 74 75 75 74 73 70 67 66 67 68 68 69 68 66 66 67 69 66 67 69 68 69 70 69 69 70 68 67 70
51 56 60 61 63 64 66 63 64 65 65 65 61 63 64 66 62 60 64 65 67 67 67 67 67 67 68 70 71 72 72 72 71 70 69 65 60 53 56 57 57 60 61 62 62 65 67 68 67 69 70 71 71 72 72 74 75 73 73 73 74 74 75 75 74 74 74 74 74 75 75 75 73 69 67 65 66 67 68 68 66 66 67 67 69 68 68 69 70 70 69 69 69 69 69 68 71
53 56 60 63 63 64 65 64 64 64 64 64 63 62 65 65 64 61 63 64 66 66 66 66 66 66 67 69 69 71 72 72 72 69 68 65 63 55 55 56 56 59 59 61 61 64 65 66 67 68 69 70 71 70 70 71 73 72 72 72 72 72 73 73 73 72 72 73 74 74 74 74 74 70 67 65 65 65 66 66 66 68 66 65 67 67 67 70 71 71 70 69 69 69 69 70 69
53 56 57 61 62 62 64 62 64 65 62 65 64 61 60 61 60 63 63 65 65 66 65 66 65 66 66 66 67 69 69 69 68 68 67 66 65 63 59 56 56 57 58 60 60 63 63 64 66 67 67 69 70 69 68 69 71 71 71 70 71 71 70 71 70 70 70 70 73 74 74 74 73 70 67 67 70 68 67 66 66 67 65 64 65 66 67 72 71 71 70 71 71 71 70 68 67
52 58 57 58 58 58 62 64 64 61 60 67 61 53 55 58 62 62 63 65 65 65 64 64 65 65 65 65 66 68 69 68 67 67 67 66 66 65 63 59 57 57 56 58 59 61 62 62 65 66 66 68 69 69 68 69 70 70 71 70 71 70 69 70 70 69 70 69 69 70 73 73 73 71 68 67 67 68 68 67 66 65 65 65 65 66 66 69 69 70 70 71 73 73 70 69 68
51 55 55 54 54 54 59 62 63 57 64 65 60 52 53 59 62 62 62 65 64 63 63 63 65 65 65 66 66 66 68 68 66 66 67 67 67 66 65 63 57 57 58 57 57 59 62 61 62 65 67 66 69 68 68 68 70 70 71 70 69 70 68 69 70 69 68 68 68 68 70 72 73 71 69 68 68 69 68 67 67 66 66 68 66 65 66 66 68 68 71 71 70 69 68 68 68
53 49 48 52 52 52 57 65 61 55 61 64 55 52 55 58 60 63 63 63 63 62 62 63 64 65 66 66 66 66 66 67 68 68 67 66 65 65 64 63 59 56 57 56 57 57 60 60 62 61 66 66 67 66 66 67 70 70 71 73 69 69 68 67 68 69 68 68 68 67 67 71 72 71 70 70 69 70 69 68 67 66 66 66 65 65 68 67 69 70 71 69 67 66 68 67 68
51 49 50 49 50 51 57 60 62 60 63 64 55 51 56 56 59 61 62 62 61 61 62 63 64 65 65 65 64 65 66 67 68 68 67 66 65 65 64 62 60 56 57 56 56 57 57 59 62 59 65 66 66 65 65 65 68 70 70 70 69 68 68 67 66 67 68 67 67 66 66 68 72 72 71 72 71 70 70 69 68 68 68 68 65 66 68 69 68 68 69 71 68 68 68 67 67
43 44 48 50 47 51 53 57 61 60 60 58 60 54 54 55 57 59 61 62 61 60 61 62 64 64 64 64 64 65 66 66 64 65 66 65 64 64 62 65 61 58 55 56 56 57 56 57 59 58 64 65 66 65 65 64 65 68 70 70 71 68 68 67 66 66 66 66 66 66 66 65 69 72 73 73 72 71 71 70 70 70 71 70 68 68 68 68 69 67 66 69 71 69 69 68 68
33 42 49 50 49 53 52 51 55 60 60 56 59 52 52 55 57 58 59 61 61 60 61 62 62 63 63 63 63 64 65 64 63 64 66 67 66 68 66 64 70 71 64 54 55 56 56 56 58 59 62 64 65 66 66 64 63 65 68 69 69 68 67 66 66 66 66 66 65 65 66 66 67 69 72 73 73 72 72 72 72 72 72 73 72 70 69 69 69 69 67 67 71 70 69 68 68
26 42 46 49 48 51 50 52 57 57 57 57 57 49 52 55 56 58 59 59 60 60 61 63 62 62 62 62 63 64 64 64 65 66 67 68 67 71 71 72 72 70 68 66 61 63 57 55 55 56 61 62 64 65 65 65 64 63 63 66 67 68 66 67 65 65 65 65 65 64 64 64 67 70 71 73 73 73 73 73 73 73 73 73 72 70 68 68 69 68 68 67 68 70 73 71 70
22 43 48 48 47 50 50 48 56 57 55 55 57 50 52 54 56 57 58 59 59 60 60 62 63 62 62 62 62 63 63 63 65 66 67 68 69 70 71 71 70 67 63 65 67 67 66 59 57 55 58 61 63 63 63 64 63 63 64 64 64 65 65 65 64 63 63 63 64 63 64 68 71 72 72 73 73 74 74 73 73 73 73 73 72 70 68 67 68 69 69 72 68 67 69 70 69
17 45 47 46 47 47 48 46 52 55 51 50 53 50 52 54 56 57 58 58 58 59 60 61 62 62 62 63 63 63 63 65 67 67 68 67 68 70 71 71 74 65 67 68 68 68 69 68 57 59 63 60 62 62 63 63 63 63 63 63 63 64 64 66 64 64 61 60 61 62 68 71 73 73 75 74 75 74 74 73 73 73 73 73 73 72 69 72 69 69 69 70 73 68 69 69 68
10 26 44 43 44 44 44 45 50 53 50 48 48 49 51 53 55 56 57 57 58 59 61 61 62 62 63 63 64 64 64 65 66 66 68 68 68 72 70 69 68 68 66 65 67 69 71 72 73 72 70 61 63 63 64 63 64 65 64 64 63 64 72 71 69 69 71 69 68 63 71 73 73 73 74 75 74 74 74 74 73 73 73 73 73 72 72 71 69 67 68 67 69 69 69 69 69
12 10 34 39 40 33 33 39 47 51 44 44 47 47 50 53 55 55 57 58 59 59 61 61 62 62 63 63 64 64 64 65 65 66 66 66 67 70 68 69 69 70 69 66 66 67 69 72 72 72 73 73 67 66 69 68 70 73 73 73 74 72 73 76 75 75 74 73 72 75 75 74 73 73 73 74 74 73 74 74 74 73 73 73 73 72 71 70 70 69 68 70 69 68 68 67 69
12 9 17 28 34 30 32 35 41 47 36 47 45 45 46 51 53 55 57 60 60 60 61 61 62 63 63 64 65 65 64 65 65 65 66 65 66 68 68 69 70 69 69 67 66 67 67 70 72 71 72 74 74 74 71 73 73 72 73 73 74 73 73 73 73 73 73 73 73 73 73 75 75 74 74 73 74 73 74 74 74 73 73 73 73 72 71 70 69 70 70 71 70 68 68 68 68
9 12 13 28 29 27 32 33 33 35 34 42 42 39 42 46 52 54 55 58 58 59 59 60 61 62 62 64 65 65 65 65 65 65 65 65 65 66 67 69 69 69 68 68 66 66 67 68 71 72 71 73 74 73 73 73 72 71 71 69 68 69 68 69 69 68 69 71 72 73 73 73 74 74 73 73 73 73 73 74 74 73 73 73 73 71 70 69 69 69 69 70 69 69 68 68 67
10 12 17 14 26 29 30 30 26 26 31 38 40 37 38 43 46 51 54 56 57 58 59 60 60 60 61 64 65 64 64 65 65 65 65 64 65 66 66 67 68 68 68 68 68 67 67 68 70 72 72 72 75 73 73 73 71 71 70 68 67 67 66 67 68 68 68 70 72 73 73 73 72 72 72 73 73 73 73 73 73 73 73 72 73 72 71 69 68 68 69 69 69 70 69 68 67
15 18 19 18 15 17 29 29 24 28 37 36 36 38 38 38 43 50 54 55 56 56 57 59 60 59 60 63 63 63 63 64 63 63 62 63 64 65 65 67 68 68 68 68 68 68 67 68 68 71 72 73 73 75 74 73 72 71 71 70 70 69 68 68 69 69 70 72 73 73 74 74 74 73 72 73 73 73 73 72 73 73 73 72 72 71 70 70 69 68 69 69 70 70 69 68 68
17 17 16 18 14 11 15 27 23 25 24 28 33 41 38 41 44 50 53 54 54 54 55 57 58 59 60 61 61 61 61 63 61 61 60 64 64 65 65 66 68 68 68 67 68 67 67 67 68 68 70 72 72 75 74 74 74 72 72 71 71 72 71 70 71 72 73 73 72 73 74 74 74 73 72 72 73 73 74 73 73 72 72 72 73 71 70 70 69 68 68 69 69 70 69 69 68
14 16 20 18 26 16 8 9 11 32 21 25 28 37 40 42 47 46 51 52 52 53 54 55 57 58 59 60 60 61 60 61 61 60 61 65 66 65 66 66 66 67 68 68 68 70 70 69 68 69 69 71 71 73 75 74 74 74 73 72 71 71 72 72 72 72 72 73 73 73 73 73 72 73 72 72 72 72 72 73 73 72 72 72 73 71 70 70 69 68 68 68 69 69 69 69 69
19 16 16 12 13 16 19 28 35 28 19 26 24 38 42 41 45 45 47 49 51 52 53 53 55 57 59 60 60 59 58 61 62 63 64 65 66 66 66 65 65 68 68 68 68 69 69 69 68 68 69 71 72 72 72 73 74 74 73 73 72 72 72 72 71 72 72 72 72 72 73 72 72 72 72 72 71 71 71 72 72 73 72 73 73 71 70 69 69 68 67 67 69 69 69 69 70
16 15 13 16 18 29 19 26 33 20 24 30 26 38 40 38 43 46 46 48 50 51 51 52 54 56 58 58 58 58 59 61 63 63 64 65 66 65 65 64 66 68 68 67 66 68 69 68 69 68 69 69 71 72 72 72 73 74 74 74 73 73 72 72 72 71 71 71 72 72 72 72 72 72 72 72 72 71 71 71 72 72 72 72 71 71 70 69 69 68 67 67 68 69 69 70 69
14 16 23 15 21 26 19 19 16 17 17 27 30 37 38 38 43 44 45 46 45 50 51 53 55 56 56 56 57 57 59 61 62 63 64 66 66 65 64 64 65 65 65 65 64 65 67 68 69 68 68 69 70 73 73 73 73 74 74 74 74 74 73 73 72 72 72 72 72 72 72 72 72 72 72 71 72 73 73 73 72 72 72 72 72 70 70 70 69 68 67 67 67 68 69 69 69
12 15 20 20 19 22 21 27 28 28 27 29 26 39 38 41 42 45 45 46 47 51 52 54 55 55 55 56 56 57 60 61 62 63 64 63 64 63 63 64 65 65 63 62 63 66 64 64 67 66 65 67 70 73 74 74 74 74 74 74 74 74 74 74 73 73 73 73 73 73 72 72 72 72 72 72 72 72 74 74 74 72 72 71 72 71 70 69 69 68 67 67 67 68 69 70 70
13 14 17 25 22 20 19 23 16 20 23 28 30 34 37 40 42 46 46 47 50 52 53 55 56 56 56 56 54 57 58 60 61 61 61 60 59 61 60 63 63 63 63 62 63 63 64 64 64 66 65 66 67 68 71 73 74 74 74 74 73 72 72 73 73 73 73 73 73 73 73 73 73 72 72 72 73 73 73 73 74 73 73 72 72 71 71 70 70 70 69 68 68 67 69 69 69
21 19 16 14 17 30 17 26 21 22 21 21 37 41 44 43 46 51 49 50 51 55 55 56 56 56 56 54 54 55 56 56 56 59 59 59 60 61 60 61 61 61 62 63 61 63 66 67 69 70 69 70 71 72 72 74 74 74 74 74 73 73 73 72 72 72 73 73 73 73 73 73 73 73 73 73 73 73 73 73 73 73 73 72 72 71 71 70 70 69 69 69 68 68 68 69 69
22 16 16 14 16 23 29 33 34 25 23 33 43 41 45 43 45 47 50 51 52 54 55 55 55 55 54 53 54 54 54 54 56 57 57 58 59 60 59 58 59 64 62 60 62 64 65 65 64 65 66 67 67 71 72 72 70 69 69 69 70 71 72 72 72 72 73 73 73 74 74 74 74 73 73 73 73 73 73 73 72 72 72 72 71 71 71 70 70 69 69 69 68 68 68 68 69
18 17 14 17 19 18 18 13 25 20 12 28 40 39 40 41 40 45 49 50 51 51 51 53 53 53 52 52 53 55 54 55 57 57 58 58 57 58 60 62 62 61 60 61 64 64 66 67 67 67 68 68 69 69 70 70 70 69 69 69 69 69 69 69 69 69 71 72 74 73 73 73 73 73 71 73 73 73 72 74 72 72 72 72 71 71 71 70 70 70 69 70 70 69 68 68 69
18 17 23 17 18 13 23 17 14 14 19 22 37 39 41 42 42 46 47 49 50 50 50 50 50 51 50 52 53 54 55 56 56 56 57 59 61 60 60 58 59 60 61 61 63 65 66 68 69 68 67 68 68 69 70 70 70 70 69 69 69 69 69 70 71 72 72 72 72 73 73 73 74 74 74 73 72 72 72 72 72 72 72 71 71 71 71 71 71 70 70 69 70 71 70 69 69
23 20 18 21 16 21 17 18 25 13 16 25 35 36 37 42 42 45 46 49 49 50 50 49 48 48 50 52 53 54 56 56 56 57 56 57 57 57 59 59 60 61 63 64 64 65 66 68 67 68 67 67 68 68 69 69 69 70 69 70 70 71 72 71 71 71 71 72 72 73 73 73 74 74 73 73 72 72 72 72 72 72 72 72 71 71 71 71 71 70 70 69 69 69 70 70 70
15 15 18 20 24 23 16 24 16 17 22 21 29 33 39 44 48 44 46 48 50 50 50 50 50 47 52 56 56 56 57 57 57 56 56 55 57 59 61 61 62 63 67 66 65 66 66 67 66 66 66 66 66 67 67 67 68 68 69 69 69 70 70 71 71 71 72 72 73 73 73 73 74 74 74 73 73 72 72 72 72 72 72 71 72 72 71 71 71 70 70 70 69 69 69 69 70
15 15 18 18 18 20 16 18 22 23 23 20 35 35 41 45 50 47 46 48 49 50 49 51 55 50 56 58 58 58 57 57 56 56 57 57 59 61 62 62 63 64 65 64 66 66 66 66 66 65 66 66 66 66 66 67 68 69 69 69 70 70 71 71 72 72 72 72 71 72 72 74 74 74 73 73 72 72 73 73 72 71 70 72 72 72 72 72 71 71 70 69 69 69 69 69 70